User: anonymous   Login
Location: Hertford
(51.8000°N, 0.0667°W)
Time: 03:39:13
(UTC+00:00)
Language:

Meteor 1-22 Rocket - Orbit

View from above orbital plane
View from above orbital plane
View from above satellite
View from above satellite

Ground track
Ground track

The orbit data is extracted from the following two-line orbital elements,

1 08294U 75087B   20337.43522244 -.00000003  00000-0 -92575-5 0  9999
2 08294  81.2168 230.3265 0106131  76.5144 284.7826 14.08651966322584
Epoch (UTC): 02 December 2020 10:26:43
Eccentricity: 0.0106131
inclination: 81.2168°
perigee height: 787 km
apogee height: 941 km
right ascension of ascending node: 230.3265°
argument of perigee: 76.5144°
revolutions per day: 14.08651966
mean anomaly at epoch: 284.7826°
orbit number at epoch: 32258

The dashed part of the orbit path shows where the satellite is in the earth's shadow,  

DLR